Regional Weather Roundup
Issued by NWS

Home | Current Version | Previous Version | Graphics & Text | Print | Product List | Glossary On
Versions: 1 2 3 4 5 6 7 8 9 10 11 12 13 14 15 16 17 18 19 20 21 22 23 24 25 26 27 28 29 30 31 32 33 34 35 36 37 38 39 40 41 42 43 44 45 46 47 48 49 50
462
ASUS45 KCYS 201810
RWRWY

WYOMING REGIONAL WEATHER ROUNDUP
NATIONAL WEATHER SERVICE CHEYENNE WY
1100 AM MST TUE FEB 20 2018

NOTE:  "FAIR" INDICATES FEW OR NO CLOUDS BELOW 12,000 FEET
WITH NO SIGNIFICANT WEATHER AND/OR OBSTRUCTIONS TO VISIBILITY.

WYZ001-201900-
YELLOWSTONE NATIONAL PARK

CITY           SKY/WX    TMP DP  RH WIND       PRES   REMARKS
LK YELLOWSTONE   N/A    -18 -22  82 SE3       29.79R
6HR MIN TEMP: -33; 6HR MAX TEMP: -15;

W YELLOWSTONE  NOT AVBL

$$
WYZ002>013-054>058-071-098>099-201900-
NORTHERN WYOMING

CITY           SKY/WX    TMP DP  RH WIND       PRES   REMARKS
JACKSON        CLOUDY    13  -2  51 SE3       29.87S
CODY           FAIR      11 -10  38 CALM      29.95R
GREYBULL       FAIR     -11 -14  86 CALM      30.09R
6HR MIN TEMP: -26; 6HR MAX TEMP: -11;

WORLAND        FAIR      -8 -11  86 CALM      30.05S
6HR MIN TEMP: -20; 6HR MAX TEMP:  -8; 6HR PCP: TRACE;

SHERIDAN       FAIR      -1 -11  62 CALM      30.02R
6HR MIN TEMP: -22; 6HR MAX TEMP:   1;

BUFFALO        FAIR       1  -7  68 S6        29.94R WCI -10
6HR MIN TEMP: -15; 6HR MAX TEMP:   1;

GILLETTE       FAIR      -2  -9  72 SW6       30.00R WCI -14
6HR MIN TEMP: -13; 6HR MAX TEMP:  -1;

HULETT         FAIR       1  -6  71 MISG      30.01R
NEWCASTLE      FAIR      -4 -11  71 NW9       30.04R WCI -20

$$
WYZ014>020-022>026-101>103-201900-
CENTRAL WYOMING

CITY           SKY/WX    TMP DP  RH WIND       PRES   REMARKS
BIG PINEY      FAIR       2  -5  72 VRB3      29.86R
6HR MIN TEMP:  -8; 6HR MAX TEMP:   2;

PINEDALE       FAIR       0  -6  78 NW3       29.86R
DUBOIS           N/A    N/A N/A N/A MISG        N/A
LANDER         CLOUDY    -2  -8  76 E5        29.90S WCI -12
6HR MIN TEMP: -15; 6HR MAX TEMP:  -1; 6HR PCP: TRACE;

RIVERTON       FAIR      -4 -11  72 E3        29.92R
6HR MIN TEMP: -19; 6HR MAX TEMP:  -2;

CASPER         FAIR       4  -4  69 SW15      29.92R WCI -14
6HR MIN TEMP: -16; 6HR MAX TEMP:   4;

DOUGLAS        FAIR      -9 -14  78 SE3       29.97S
6HR MIN TEMP: -24; 6HR MAX TEMP:  -9; 6HR PCP: TRACE;


$$
WYZ021-027>030-104>119-201900-
SOUTHERN WYOMING

CITY           SKY/WX    TMP DP  RH WIND       PRES   REMARKS
EVANSTON       CLOUDY    10   6  84 SW10      29.87R WCI  -4
6HR MIN TEMP:  -1; 6HR MAX TEMP:  10; 6HR PCP: TRACE;

ROCK SPRINGS   FAIR       3  -3  76 CALM      29.89R
6HR MIN TEMP:  -8; 6HR MAX TEMP:   3;

DIXON          CLOUDY     7  -2  65 CALM      29.96R
RAWLINS        CLOUDY     2  -3  80 S3        29.86R
6HR MIN TEMP: -15; 6HR MAX TEMP:   3;

SARATOGA       FAIR       5  -6  61 CALM      29.86R
LARAMIE        FAIR      -5  -9  83 NW5       29.79R WCI -16
6HR MIN TEMP: -22; 6HR MAX TEMP:  -3; 6HR PCP: TRACE;

CHEYENNE       FAIR       7   1  76 S10       29.86R WCI  -8
6HR MIN TEMP: -14; 6HR MAX TEMP:   8;

TORRINGTON     FAIR       5  -6  60 NW7       30.04R WCI  -7
6HR MIN TEMP: -13; 6HR MAX TEMP:   5;

PINE BLUFFS    FAIR       1  -8  66 S6        29.98R WCI -10

$$




USA.gov is the U.S. government's official web portal to all federal, state and local government web resources and services.